This is the latest recevied weather packets stored in our database for station/object NR0A-4. If no packets are shown the sender has not sent any weather packets the latest 10 day(s).
| Time | Temp. | Humidity | Pressure | Rain* | Wind** | Luminosity | Snow |
|---|---|---|---|---|---|---|---|
| 1777743904 | 17.78° C | 31% | 1018.8 hPa | 0 mm | - | 872 W/m² | - |
| 1777743605 | 17.78° C | 32% | 1018.9 hPa | 0 mm | - | 863 W/m² | - |
| 1777743304 | 17.78° C | 33% | 1018.9 hPa | 0 mm | - | 861 W/m² | - |
| 1777743004 | 17.78° C | 32% | 1018.9 hPa | 0 mm | - | 860 W/m² | - |
| 1777742705 | 17.78° C | 32% | 1019.1 hPa | 0 mm | - | 856 W/m² | - |
| 1777742404 | 17.22° C | 34% | 1019.1 hPa | 0 mm | - | 849 W/m² | - |
| 1777742105 | 17.22° C | 34% | 1019.2 hPa | 0 mm | - | 840 W/m² | - |
| 1777741805 | 17.22° C | 33% | 1019.2 hPa | 0 mm | - | 840 W/m² | - |
| 1777741504 | 17.22° C | 35% | 1019.3 hPa | 0 mm | - | 833 W/m² | - |
| 1777741204 | 17.22° C | 33% | 1019.2 hPa | 0 mm | - | 828 W/m² | - |
| 1777740905 | 17.22° C | 35% | 1019.2 hPa | 0 mm | - | 817 W/m² | - |
| 1777740604 | 17.22° C | 36% | 1019.2 hPa | 0 mm | - | 814 W/m² | - |
| 1777740305 | 16.67° C | 37% | 1019.3 hPa | 0 mm | - | 807 W/m² | - |
| 1777740005 | 16.67° C | 37% | 1019.3 hPa | 0 mm | - | 802 W/m² | - |
| 1777739705 | 16.67° C | 35% | 1019.4 hPa | 0 mm | - | 791 W/m² | - |
| 1777739405 | 16.67° C | 38% | 1019.6 hPa | 0 mm | - | 782 W/m² | - |
| 1777739105 | 16.11° C | 38% | 1019.6 hPa | 0 mm | - | 775 W/m² | - |
| 1777738805 | 16.11° C | 40% | 1019.7 hPa | 0 mm | - | 765 W/m² | - |
| 1777738504 | 16.11° C | 40% | 1019.7 hPa | 0 mm | - | 758 W/m² | - |
| 1777738205 | 15.56° C | 41% | 1019.7 hPa | 0 mm | - | 747 W/m² | - |
| 1777737904 | 15.56° C | 41% | 1019.7 hPa | 0 mm | - | 740 W/m² | - |
| 1777737604 | 15.56° C | 41% | 1019.8 hPa | 0 mm | - | 729 W/m² | - |
| 1777737304 | 15° C | 41% | 1019.9 hPa | 0 mm | - | 719 W/m² | - |
| 1777737005 | 15° C | 41% | 1019.9 hPa | 0 mm | - | 707 W/m² | - |
| 1777736705 | 14.44° C | 43% | 1019.9 hPa | 0 mm | - | 698 W/m² | - |
* Rain latest hour (hover to see other rain measurements)
** Current wind speed in m/s (hover to see current wind gust speed)